Wind_Speed
6 7 6 6 6 6 5 5 5 5 5 10 13 13 12 11 10 9 11 8 8 13 10 9 6 12 9 5 4 2 7 12 14 9 3 2 4 3 5 10 6 5 5 7 6
6 5 5 5 5 5 6 5 5 6 7 7 9 11 11 10 11 16 16 16 15 12 10 8 10 15 10 8 6 10 10 16 9 9 7 3 9 10 8 10 12 8 6 5 8
7 6 5 5 4 4 5 6 6 7 8 9 10 10 10 8 5 8 19 24 21 13 13 9 5 9 19 12 12 11 17 12 10 9 6 7 11 5 11 11 7 12 12 12 14
9 6 5 4 4 4 4 4 6 7 8 8 9 9 11 10 6 5 8 2 14 17 15 13 9 7 14 17 16 13 15 13 11 7 7 11 9 13 15 20 17 15 14 13 10
11 8 6 5 5 5 4 4 5 7 8 9 9 9 10 7 11 6 5 8 3 14 21 16 15 15 18 19 17 19 17 13 13 12 12 11 14 18 20 23 19 18 13 10 11
12 10 7 6 7 5 5 7 7 7 9 11 10 12 9 13 9 13 15 11 2 9 19 20 10 18 13 20 23 12 18 16 14 14 12 14 18 5 20 17 17 15 13 9 7
14 12 9 7 7 8 6 7 8 8 8 10 9 13 10 13 5 5 7 13 14 8 18 23 27 11 13 17 16 23 12 13 15 16 15 9 18 19 21 13 15 10 7 2 3
15 14 11 9 8 8 8 9 10 10 7 7 7 10 7 7 21 15 7 4 10 17 15 19 22 12 6 10 12 18 17 17 18 15 12 9 18 11 5 2 2 2 1 2 5
16 16 14 11 10 11 10 11 13 12 9 7 7 7 7 4 17 19 23 14 3 12 16 9 14 6 11 11 13 16 15 22 18 13 13 13 12 7 6 12 13 9 3 4 5
16 17 16 15 12 12 11 7 14 10 9 8 4 5 9 8 9 15 15 18 12 10 10 12 8 8 9 11 18 18 16 12 17 9 11 14 16 14 13 10 10 6 6 6 6
16 17 16 16 16 14 9 5 6 4 11 9 9 6 2 13 6 10 10 14 12 7 12 20 11 20 24 21 16 19 18 15 13 6 6 13 16 14 16 10 11 8 9 8 8
17 17 15 15 15 15 13 5 6 3 5 19 7 20 3 7 6 11 12 13 14 16 18 17 21 24 17 22 20 17 15 15 10 5 6 13 17 17 17 11 8 10 12 12 11
16 15 14 13 12 14 18 11 14 11 2 8 21 13 7 14 6 10 17 19 16 18 16 21 20 26 13 25 21 15 15 14 9 4 7 9 18 11 5 5 3 7 11 13 14
15 15 13 10 9 8 5 15 20 15 2 6 10 10 14 7 8 22 23 15 11 19 14 20 17 20 18 19 22 16 11 7 7 2 5 3 5 9 8 6 7 11 13 13 14
13 15 14 13 3 3 10 20 20 6 5 11 9 7 10 16 4 16 23 17 16 8 6 13 26 16 19 17 23 15 11 10 4 6 4 9 6 5 3 7 9 13 15 14 13
12 15 13 11 11 9 13 27 10 4 7 8 8 11 13 19 12 7 13 13 4 11 16 12 3 17 15 16 20 13 12 7 3 1 7 11 9 5 4 2 9 14 15 15 14
12 14 16 12 5 16 32 9 3 6 4 6 5 9 14 10 16 9 18 22 6 6 7 13 12 9 14 14 4 15 15 3 5 4 6 3 7 11 4 2 9 17 17 16 15
13 14 17 22 16 14 16 3 8 5 5 4 7 14 11 12 13 13 16 17 14 14 12 7 6 14 13 17 7 12 16 4 5 6 5 3 6 1 5 2 5 13 17 16 16
11 7 8 18 18 26 6 5 4 4 6 9 14 12 10 14 5 16 17 21 5 14 7 5 1 3 13 6 15 5 6 2 2 1 3 5 4 4 2 2 5 12 17 17 16
6 4 10 16 26 15 2 5 4 6 6 15 9 12 14 15 5 14 17 16 10 15 9 12 3 5 6 8 5 8 12 5 3 5 5 4 4 2 2 0 5 14 19 18 16
5 2 3 20 23 4 4 5 4 10 13 16 8 11 11 14 8 15 17 7 19 13 14 7 6 2 12 6 14 10 7 4 3 3 3 3 3 3 4 5 5 12 18 17 17
5 3 22 35 4 3 3 5 4 6 16 16 6 8 13 14 8 4 15 6 22 13 10 7 3 8 5 3 7 12 10 11 6 5 1 4 2 3 4 5 5 10 16 16 16
3 2 18 20 4 5 6 7 8 12 17 10 11 10 11 12 9 14 13 17 21 17 12 10 6 8 5 3 2 9 11 16 10 2 11 8 3 1 2 2 4 11 15 15 15
2 3 4 3 3 4 8 10 8 16 16 15 9 9 15 12 10 14 11 10 19 20 11 5 5 12 11 6 11 14 20 19 18 11 9 11 7 6 4 4 7 11 14 14 14
4 4 4 5 8 13 7 3 11 9 7 4 6 11 15 8 11 9 8 7 14 22 10 4 3 6 3 2 15 18 19 20 20 21 13 15 18 16 9 9 10 12 13 14 13
3 3 3 3 9 12 14 9 11 6 4 4 5 14 16 11 11 13 9 12 11 17 18 5 4 3 3 3 10 14 20 22 23 21 23 18 18 5 3 9 10 11 12 13 13
4 2 3 2 4 4 5 8 14 7 6 7 11 14 14 8 11 15 13 11 8 18 20 13 4 3 3 3 5 8 19 20 19 21 22 19 21 10 8 10 11 10 9 9 9
Wind_Direction
321 320 315 316 320 313 303 296 268 253 255 238 233 226 231 228 227 224 234 242 231 241 299 291 246 214 218 237 220 237 233 238 240 227 229 167 296 335 302 282 289 276 276 358 349
300 305 312 318 313 309 302 288 272 258 240 234 231 223 226 221 229 243 246 248 254 262 265 269 218 201 205 213 203 219 231 236 246 245 248 250 297 313 293 286 284 267 232 300 331
280 281 296 309 317 297 282 277 265 245 241 236 228 223 218 191 263 253 252 246 248 246 247 247 267 229 214 212 205 208 236 230 233 242 267 284 281 287 291 279 272 295 304 311 314
270 268 269 290 293 291 282 277 270 258 238 238 227 205 184 172 239 101 75 185 238 222 236 230 238 205 215 209 210 230 235 241 241 250 255 265 293 276 276 273 282 290 301 298 294
267 268 262 276 281 277 283 286 278 258 248 237 222 196 170 209 234 185 114 66 44 205 208 214 227 215 212 209 207 227 230 229 245 258 263 274 265 276 282 272 276 277 280 272 298
263 258 261 269 273 274 277 263 265 262 242 232 218 190 210 233 221 235 245 268 307 197 215 215 229 219 237 223 212 213 236 242 248 252 257 266 275 295 269 279 287 273 265 284 307
258 257 261 256 266 257 252 257 256 254 241 232 221 192 226 230 217 218 242 244 236 210 212 216 228 243 222 218 221 230 230 228 242 248 250 265 266 250 271 297 281 273 263 272 16
256 256 254 246 252 259 254 248 246 234 232 230 201 198 241 232 239 247 246 230 232 222 224 216 232 261 256 228 199 215 228 236 235 227 238 218 261 256 289 298 289 270 173 110 77
254 251 250 249 258 264 254 257 232 223 207 182 156 199 249 210 219 231 231 235 235 207 207 206 215 246 216 214 188 204 216 224 232 212 230 216 259 246 222 286 274 252 195 141 112
253 247 250 249 259 267 252 264 215 188 162 139 163 190 234 219 212 226 232 218 230 217 195 200 187 229 208 198 198 191 212 218 221 201 219 222 244 264 280 275 260 207 184 155 121
254 249 250 254 256 266 256 117 116 187 194 196 200 218 108 220 177 216 201 186 208 224 201 201 198 222 201 203 209 206 209 206 214 198 244 253 266 266 280 262 242 210 183 154 124
252 249 253 257 255 266 231 191 200 158 196 225 230 222 132 148 187 217 185 181 198 203 233 182 216 222 207 196 210 206 203 208 212 196 260 268 275 279 272 256 247 196 176 157 140
253 247 250 257 267 256 234 223 212 153 213 212 214 207 213 229 229 203 189 204 214 215 229 196 204 210 218 192 193 198 192 196 215 181 243 281 277 246 192 175 167 192 171 159 150
249 246 240 249 267 221 219 176 174 150 265 201 197 218 210 205 228 221 196 196 224 218 207 222 198 206 191 192 192 191 206 169 162 268 240 349 284 238 230 217 194 167 165 157 149
242 237 234 224 292 208 158 165 137 93 263 136 158 161 195 194 134 192 188 208 235 171 185 206 200 195 201 189 198 211 164 216 241 273 290 234 258 236 186 223 191 172 165 160 156
238 234 225 229 236 224 178 156 108 145 243 172 145 184 165 205 218 133 177 212 223 181 213 200 222 211 205 182 202 140 127 98 117 293 248 234 231 260 194 105 161 170 168 162 156
241 223 211 208 230 196 156 133 168 230 118 171 168 175 171 180 204 188 190 193 196 143 187 228 248 178 204 148 129 169 142 145 191 206 238 153 213 257 177 153 166 174 176 169 161
246 224 217 214 218 185 152 151 225 164 176 160 164 165 181 172 195 213 195 190 212 275 166 196 176 171 175 179 153 195 177 193 180 193 177 173 232 160 85 60 196 190 174 165 165
252 204 217 226 202 174 155 215 227 174 162 170 170 164 201 183 139 203 202 195 190 242 151 192 221 105 156 133 147 189 177 24 117 70 238 179 233 217 168 133 189 183 171 172 172
181 191 239 220 190 161 155 246 229 161 180 182 179 191 187 180 182 191 185 199 207 234 246 189 123 154 112 82 348 184 162 183 210 204 224 194 243 209 155 14 165 180 181 173 170
150 225 194 171 150 142 214 232 239 216 169 197 189 186 192 178 181 188 187 168 195 211 219 219 220 345 139 193 186 155 167 219 255 280 241 180 144 100 299 304 239 189 184 173 171
153 236 152 151 144 197 211 205 227 227 191 214 220 188 184 162 154 248 196 205 196 202 188 222 210 145 198 65 206 188 179 184 197 193 251 332 130 155 302 305 222 181 176 172 170
215 157 161 167 193 203 231 234 227 179 196 199 197 192 166 161 171 225 197 198 191 195 194 181 181 139 162 208 107 204 192 204 213 285 206 221 185 129 112 114 145 170 170 169 170
207 157 148 215 272 202 216 249 208 202 201 222 177 167 161 176 211 193 209 181 195 204 206 188 193 217 201 209 176 197 197 206 207 222 210 226 240 182 166 158 154 168 173 173 176
196 212 186 196 225 238 246 239 211 169 221 216 182 193 175 160 186 190 173 169 190 206 205 254 222 198 244 197 189 197 197 196 208 217 227 240 234 248 231 185 177 173 174 179 184
210 206 198 255 218 214 226 207 222 150 184 215 226 189 190 176 188 185 163 177 179 198 205 215 214 169 171 175 206 213 213 206 215 218 233 251 253 264 178 158 164 169 176 188 192
202 231 267 205 187 183 192 196 208 149 214 254 218 182 197 220 196 177 175 182 188 181 192 201 189 188 194 127 164 238 214 210 216 220 220 230 242 174 171 180 179 171 176 182 188
Height
796 797 797 796 796 795 795 795 796 798 797 799 800 801 803 805 807 808 808 807 807 807 807 806 806 806 808 806 805 804 807 806 802 803 792 788 792 783 783 782 775 773 770 771 773
795 795 795 794 794 794 795 795 796 796 797 798 799 800 802 804 806 805 804 802 803 806 808 807 801 802 802 801 802 801 801 796 790 787 789 787 791 788 788 778 774 770 768 770 771
795 793 793 792 792 793 794 795 795 796 796 796 797 798 800 804 806 798 798 798 800 806 807 808 805 801 799 796 797 796 796 788 791 788 789 789 788 785 786 781 772 772 766 767 767
793 791 790 790 790 791 792 793 794 794 795 795 795 796 799 803 802 795 795 794 797 801 806 807 806 802 798 796 790 798 790 786 787 788 790 790 784 784 781 775 769 767 766 767 764
791 789 787 788 788 789 789 790 792 793 793 794 794 796 799 800 795 795 794 794 794 798 800 803 803 797 796 789 789 795 785 787 785 787 788 787 787 782 777 767 765 764 765 764 762
789 787 785 785 786 786 787 789 791 792 792 792 793 794 796 796 791 792 793 794 794 796 799 800 797 791 787 784 786 782 786 784 782 784 785 789 779 783 763 760 758 760 761 761 762
786 786 784 782 783 785 785 788 790 791 791 791 792 794 794 789 789 789 790 790 792 793 794 796 798 795 783 786 780 780 790 784 781 782 782 781 780 775 760 759 760 758 758 762 763
782 783 781 779 780 782 783 785 788 789 789 790 791 794 788 784 787 787 788 788 790 790 791 793 797 797 792 775 779 785 786 788 773 775 777 782 778 760 758 760 759 758 759 761 762
779 779 778 778 778 780 780 782 785 787 788 789 792 792 784 781 780 781 785 786 786 787 788 791 797 792 787 787 785 777 782 784 776 772 773 778 771 757 760 759 755 752 756 759 761
775 775 775 775 776 777 777 779 780 784 787 789 790 793 780 773 774 776 780 782 783 785 786 788 794 788 784 782 776 775 779 770 777 770 774 772 769 758 752 756 752 749 755 757 759
770 771 771 772 772 773 775 778 782 784 781 770 772 768 768 770 773 774 777 779 782 781 782 777 788 775 770 766 758 757 764 770 767 765 774 767 760 757 748 748 749 749 752 755 758
765 767 767 767 768 768 769 769 767 768 771 771 771 769 769 769 769 770 774 775 777 775 779 770 773 768 766 761 757 757 766 769 759 770 772 763 757 748 741 742 743 744 749 752 760
761 762 763 764 765 763 761 761 764 765 769 763 764 764 766 770 765 763 769 767 765 762 776 760 761 757 766 761 759 762 766 761 765 771 768 767 749 741 744 746 748 745 745 751 757
756 757 759 761 762 756 756 756 760 762 767 758 757 756 761 763 762 759 761 764 759 756 771 755 750 755 761 754 752 767 755 761 772 778 772 764 762 740 732 741 746 746 748 753 757
751 753 754 756 755 754 755 755 760 763 748 742 750 749 749 753 748 751 755 759 753 757 773 756 747 750 751 752 747 753 755 762 769 775 780 764 769 733 740 736 743 743 747 753 758
745 747 750 753 752 751 751 754 759 762 738 741 742 745 747 748 745 750 753 755 753 753 761 741 741 748 740 746 747 755 763 770 771 779 775 752 759 732 727 728 734 742 747 753 758
739 741 744 747 746 746 749 756 756 738 736 736 739 741 738 744 744 751 746 751 759 751 756 752 749 741 734 754 758 751 765 787 791 790 766 762 764 727 724 732 731 739 745 750 757
733 734 736 739 742 744 747 750 732 721 732 733 732 736 736 736 738 746 740 747 753 749 741 755 735 737 728 739 755 758 748 751 763 760 751 770 752 726 730 731 733 730 740 749 756
728 728 730 731 736 740 743 737 717 718 728 729 727 732 731 730 740 738 732 737 753 746 737 752 740 733 729 737 742 763 766 746 754 761 754 737 733 723 731 733 735 735 741 748 755
723 725 721 722 729 735 743 725 719 719 728 720 712 714 718 722 739 725 729 727 739 736 730 739 748 739 741 742 753 748 746 766 756 761 758 739 739 723 725 727 735 736 739 745 753
720 722 715 718 725 735 728 723 715 713 720 711 704 709 706 712 732 719 723 721 727 724 729 726 723 751 739 749 750 747 755 755 745 748 737 737 727 719 723 725 728 732 735 743 752
717 713 712 716 725 728 723 718 713 707 713 704 700 698 703 707 733 728 716 717 713 716 726 719 707 738 741 737 731 730 736 743 748 757 749 742 727 724 725 727 730 729 735 743 750
710 709 714 714 710 714 714 709 712 709 707 700 696 693 697 707 724 726 711 707 711 715 713 712 712 730 751 745 740 738 737 733 730 740 736 739 728 725 725 726 730 730 737 743 750
706 703 711 711 705 702 705 701 699 693 692 691 685 688 696 704 701 707 704 707 709 711 711 713 710 706 715 714 717 730 729 728 730 737 731 729 717 721 723 725 730 731 735 741 748
703 692 694 699 700 698 697 694 687 686 689 687 685 683 686 698 703 702 703 708 709 709 714 712 709 711 714 713 711 716 723 727 727 723 728 716 723 713 711 720 722 727 733 738 745
692 692 692 683 684 688 690 683 683 684 686 686 687 679 679 684 686 694 699 697 702 707 711 713 714 713 717 720 715 717 714 717 717 717 715 715 714 708 714 718 725 726 731 736 741
693 692 690 674 677 681 678 679 677 682 687 686 678 677 682 680 678 679 686 687 688 696 703 707 711 714 713 721 720 724 710 712 710 707 709 715 699 713 722 722 722 726 732 735 740